User: anonymous   Login
Location: *
(40.4270°N, 9.4940°E)
Time: 22:49:26
(UTC+01:00)
Language:

Okean 2 - Orbit

View from above orbital plane
View from above orbital plane
View from above satellite
View from above satellite

Ground track
Ground track

The orbit data is extracted from the following two-line orbital elements,

1 20510U 90018A   17349.18905596  .00000431  00000-0  33225-4 0  9990
2 20510  82.5149 357.6420 0013920  91.0331 314.8887 14.99059965508568
Epoch (UTC): 15 December 2017 04:32:14
Eccentricity: 0.0013920
inclination: 82.5149°
perigee height: 560 km
apogee height: 579 km
right ascension of ascending node: 357.6420°
argument of perigee: 91.0331°
revolutions per day: 14.99059965
mean anomaly at epoch: 314.8887°
orbit number at epoch: 50856

The dashed part of the orbit path shows where the satellite is in the earth's shadow,  

DLR